Overview Statistics Trail Chart Weather Telemetry Raw packets
 

This is the latest recevied weather packets stored in our database for station/object KB9PVH-8. If no packets are shown the sender has not sent any weather packets the latest 10 day(s).

<< 18 19 20 21 22 23 24 >>
Time Temp. Humidity Pressure Rain* Wind** Luminosity Snow
1788277305 27.78° C - - 0 mm 16.09 m/s, ° - -
1788276461 27.22° C - - 0 mm 9.39 m/s, ° - -
1788274781 27.78° C - - 0 mm 8.94 m/s, ° - -
1788273941 27.78° C - - 0 mm 17.43 m/s, ° - -
1788272262 25° C - - 0 mm 21.46 m/s, ° - -
1788271420 24.44° C - - 0 mm 7.15 m/s, ° - -
1788270581 23.89° C - - 0 mm 8.94 m/s, ° - -
1788269711 23.33° C - - 0 mm 6.26 m/s, ° - -
1788268871 23.33° C - - 0 mm 8.94 m/s, ° - -
1788268032 22.22° C - - 0 mm 5.81 m/s, ° - -
1788267190 21.67° C - - 0 mm 4.47 m/s, ° - -
1788266350 21.67° C - - 0 mm 3.58 m/s, ° - -
1788265510 21.11° C - - 0 mm 1.79 m/s, ° - -
1788264640 21.11° C - - 0 mm 0.89 m/s, ° - -
1788263800 21.11° C - - 0 mm 0.89 m/s, ° - -
1788262120 21.11° C - - 0 mm 0 m/s - -
1788261377 21.11° C - - 0 mm 0 m/s - -
1788261280 21.11° C - - 0 mm 0 m/s - -
1788260440 21.11° C - - 0 mm 0 m/s - -
1788259600 21.67° C - - 0 mm 0 m/s - -
1788258760 21.67° C - - 0 mm 0 m/s - -
1788257080 21.67° C - - 0 mm 0 m/s - -
1788252040 21.67° C - - 0 mm 0 m/s - -
1788250332 21.67° C - - 0 mm 0 m/s - -
1788249492 22.22° C - - 0 mm 0 m/s - -

* Rain latest hour (hover to see other rain measurements)
** Current wind speed in m/s (hover to see current wind gust speed)